Location: Puerto Pe�asco
(31.3170°N, 113.5330°W)
Time: 06:44:48
(UTC-07:00)

Daily predictions for brighter satellites

Satellite Brightness Start Highest point End
(mag) Time Altitude Azimuth Time Altitude Azimuth Time Altitude Azimuth
Centaur D AC-25 4.3 17:41:49 10° SSW 17:45:39 30° SE 17:55:24 10° E
Cosmos 2297 4.2 17:46:25 10° SSW 17:52:01 65° WNW 17:57:37 10° NNE
IDEFIX/ARIANE 42P 2.7 17:48:37 10° SSE 17:53:37 52° ENE 17:58:39 10° N
CZ-2C R/B 2.6 17:49:29 10° SSE 17:54:21 55° ENE 17:59:22 10° N
MSX 4.3 17:50:47 10° SE 17:56:00 38° ENE 18:01:14 10° N
Thor Agena Rocket 3.6 17:51:50 10° NNE 17:57:07 86° ESE 18:02:24 10° SSW
Cosmos 2278 Rocket 4.2 17:54:43 10° WSW 17:59:18 25° WNW 18:03:52 10° N
PAYLOAD A 4.1 17:55:11 10° S 18:00:01 82° WSW 18:05:03 10° NNW
Okean 1-7 Rocket 3.7 17:55:42 10° S 18:00:07 57° E 18:04:29 10° NNE
Cosmos 1666 4.3 17:58:03 10° NE 18:00:29 16° ENE 18:02:55 10° ESE
Genesis I 3.9 17:58:38 10° NW 18:02:29 59° WSW 18:06:17 10° SSE
SMAP 3.0 17:59:43 10° SSE 18:04:19 67° ENE 18:08:56 10° N
USA 234 3.7 18:01:09 10° NE 18:07:34 62° NW 18:13:59 10° WSW
Cosmos 1346 Rocket 4.1 18:06:47 10° SSW 18:10:28 41° W 18:14:09 10° N
SJ-12 4.0 18:06:52 10° SSE 18:10:56 87° WSW 18:15:05 10° NNW
SL-24 DEB 4.2 18:11:29 10° N 18:16:11 88° E 18:20:49 10° S
Cosmos 1833 Rocket 2.7 18:12:51 10° NNW 18:18:26 60° ENE 18:23:57 10° SSE
AQUARIUS 4.3 18:15:53 10° S 18:20:22 78° WSW 18:24:52 10° NNW
Cosmos 1500 4.2 18:18:20 10° NNW 18:22:04 50° W 18:25:48 10° SSW
Cosmos 1934 Rocket 4.4 18:17:09 10° NNE 18:22:57 39° E 18:28:47 10° SSE
NOSS 3-4 (A) 4.2 18:18:15 10° NNW 18:24:52 40° NE 18:31:49 10° ESE
NOSS 3-4 (C) 4.3 18:18:21 10° NNW 18:24:58 39° NE 18:31:53 10° ESE
Cosmos 1025 Rocket 3.0 18:21:47 10° S 18:26:07 73° E 18:30:31 10° N
Cosmos 1743 2.6 18:23:32 10° N 18:27:24 78° E 18:31:13 10° S
Cosmos 2056 Rocket 3.6 18:22:49 10° SSW 18:28:12 90° WNW 18:33:32 10° NNE
Cosmos 407 Rocket 4.4 18:25:01 10° N 18:29:17 26° ENE 18:33:32 10° ESE
Meteor 1-28 Rocket 3.9 18:26:39 11° NNE 18:29:53 34° E 18:33:19 10° SSE
Cosmos 2082 Rocket 2.2 18:24:30 10° NNW 18:30:12 88° WSW 18:35:54 10° SSE
COSMO-SKYMED 1 2.5 18:25:56 10° NNE 18:30:17 70° ESE 18:34:35 10° S
KM-V1 2.8 18:31:24 10° W 18:34:02 80° S 18:34:48 34° ESE
OAO 2 Rocket 4.2 18:30:28 10° SW 18:35:14 37° SSE 18:38:26 18° E
Cosmos 1535 Rocket 4.4 18:29:25 10° N 18:35:38 66° E 18:41:44 10° SSE
Abrixas 2.3 18:34:16 10° NW 18:37:13 86° NE 18:39:36 15° SE
Meteor 2-14 Rocket 4.5 18:31:34 10° N 18:37:43 88° W 18:43:49 10° S
Cosmos 1484 Rocket 2.5 18:40:35 10° SSE 18:44:18 78° ENE 18:48:01 10° N
Cosmos 2239 Rocket 4.4 18:40:16 10° N 18:46:27 85° E 18:52:35 10° S
YAOGAN 1 4.1 18:43:53 10° SSW 18:47:53 38° W 18:51:56 10° NNW
NOAA 12 4.3 18:49:22 10° SE 18:54:19 43° ENE 18:59:17 10° N
Cosmos 2058 Rocket 3.3 18:54:06 10° N 18:58:22 45° E 19:02:35 10° SSE
Cosmos 1821 Rocket 4.1 18:53:36 10° N 18:59:41 78° W 19:05:48 10° S
Cosmos 2369 Rocket 2.2 18:55:48 10° S 19:01:21 64° ESE 19:04:41 25° NNE
Okean 2 4.1 19:04:06 10° SSW 19:08:09 54° W 19:12:16 10° N
Meteor 2-9 Rocket 4.1 19:03:04 10° N 19:08:26 79° W 19:13:43 10° S
Cosmos 1340 3.0 19:06:48 10° SSW 19:10:32 63° W 19:12:45 23° N
Cosmos 1605 Rocket 3.9 19:04:24 10° N 19:10:38 69° E 19:16:44 10° SSE
Delta 2 Rocket 3.2 19:11:47 10° WNW 19:15:16 60° N 19:15:16 60° N
Cosmos 1452 Rocket 3.6 19:11:45 10° SSW 19:16:59 77° WNW 19:20:15 24° N
Meteor 1-15 Rocket 4.3 19:13:20 10° N 19:19:11 81° W 19:24:55 10° S
Cosmos 1190 Rocket 4.1 19:17:07 10° NNW 19:22:20 75° WSW 19:27:30 10° S
METEOR-M 4.0 19:19:52 10° SSE 19:25:10 77° ENE 19:30:31 10° N
Cosmos 1943 Rocket 2.6 19:20:31 10° S 19:25:01 41° SE 19:25:01 41° SE
Cosmos 1626 Rocket 4.2 19:32:46 10° S 19:36:01 48° S 19:36:01 48° S
Centaur AC-72 4.4 19:36:05 10° SSW 19:40:11 18° SSE 19:41:16 17° SSE
ATLAS 3B CENTAUR R/B 3.4 19:56:37 10° W 20:13:27 59° SSW 20:14:49 53° SSE
